PY2XH-13 Weather Reports


time (UTC)temp
C
wind
direction
speed
KPH
gust
KPH
rain 1hr
cm
rain 24hr
cm
rain mn
cm
humidity
%
barometer
mb
20260509201605 26 0.0 0.0 0.00 0.00 0.00 49 1028.7
20260509194605 26 0.0 0.0 0.00 0.00 0.00 46 1028.5
20260509191604 26 0.0 0.0 0.00 0.00 0.00 47 1028.0
20260509184604 26 0.0 0.0 0.00 0.00 0.00 47 1028.1
20260509181605 26 0.0 0.0 0.00 0.00 0.00 49 1028.3
20260509174605 26 0.0 0.0 0.00 0.00 0.00 50 1028.4
20260509171604 26 0.0 0.0 0.00 0.00 0.00 50 1028.7
20260509164604 26 0.0 0.0 0.00 0.00 0.00 48 1028.8
20260509161605 25 0.0 0.0 0.00 0.00 0.00 50 1029.0
20260509154605 25 0.0 0.0 0.00 0.00 0.00 51 1029.1
20260509151604 25 0.0 0.0 0.00 0.00 0.00 51 1029.5
20260509144604 25 0.0 0.0 0.00 0.00 0.00 55 1030.2
20260509141604 24 0.0 0.0 0.00 0.00 0.00 55 1030.6
20260509134604 24 0.0 0.0 0.00 0.00 0.00 56 1030.7
20260509131605 23 0.0 0.0 0.00 0.00 0.00 56 1030.9
20260509124604 24 0.0 0.0 0.00 0.00 0.00 55 1031.0
20260509121604 23 0.0 0.0 0.00 0.00 0.00 55 1030.4
20260509114604 23 0.0 0.0 0.00 0.00 0.00 56 1030.0
20260509111604 23 0.0 0.0 0.00 0.00 0.00 55 1029.8
20260509104604 23 0.0 0.0 0.00 0.00 0.00 55 1028.9
20260509101604 23 0.0 0.0 0.00 0.00 0.00 56 1028.7
20260509094604 23 0.0 0.0 0.00 0.00 0.00 55 1027.7
20260509091604 23 0.0 0.0 0.00 0.00 0.00 56 1027.6
20260509084604 23 0.0 0.0 0.00 0.00 0.00 56 1027.1
20260509081604 22 0.0 0.0 0.00 0.00 0.00 57 1026.6
20260509074604 22 0.0 0.0 0.00 0.00 0.00 57 1026.7
20260509071604 22 0.0 0.0 0.00 0.00 0.00 57 1026.8
20260509064604 22 0.0 0.0 0.00 0.00 0.00 58 1027.0
20260509061604 22 0.0 0.0 0.00 0.00 0.00 58 1027.0
20260509054604 23 0.0 0.0 0.00 0.00 0.00 57 1027.1
20260509051604 23 0.0 0.0 0.00 0.00 0.00 57 1027.2
20260509044604 23 0.0 0.0 0.00 0.00 0.00 57 1027.3
20260509041604 23 0.0 0.0 0.00 0.00 0.00 57 1027.3
20260509034604 23 0.0 0.0 0.00 0.00 0.00 58 1027.4
20260509031604 23 0.0 0.0 0.00 0.00 0.00 57 1027.3
20260509024604 23 0.0 0.0 0.00 0.00 0.00 56 1027.3
20260509021604 23 0.0 0.0 0.00 0.00 0.00 54 1027.3
20260509014604 25 0.0 0.0 0.00 0.00 0.00 55 1027.4
20260509011604 25 0.0 0.0 0.00 0.00 0.00 54 1027.2
20260509004604 25 0.0 0.0 0.00 0.00 0.00 53 1027.4
20260509001604 25 0.0 0.0 0.00 0.00 0.00 54 1027.2
20260508234605 25 0.0 0.0 0.00 0.00 0.00 54 1026.9
20260508231604 25 0.0 0.0 0.00 0.00 0.00 56 1027.3
20260508224604 25 0.0 0.0 0.00 0.00 0.00 56 1027.3
20260508221604 25 0.0 0.0 0.00 0.00 0.00 55 1027.1
20260508214604 25 0.0 0.0 0.00 0.00 0.00 55 1027.1
20260508211604 25 0.0 0.0 0.00 0.00 0.00 54 1026.8
20260508204604 25 0.0 0.0 0.00 0.00 0.00 54 1026.6